Location: Bodham
(52.9000°N, 1.1667°E)
Time: 15:22:07
(UTC+00:00)

Cosmos 2112 Rocket - Pass Details

Date: 20 October 2025
Orbit: 753 x 782 km, 74.0° (Epoch: 13 November)

Event Time Altitude Azimuth Distance (km) Brightness Sun altitude
Rises 05:06:45 0° 332° (NNW) 3,246 7.0 -13.3°
Reaches altitude 10° 05:09:09 10° 330° (NNW) 2,311 6.2 -13.0°
Maximum altitude 05:14:20 68° 249° (WSW) 822 3.9 -12.2°
Drops below altitude 10° 05:19:28 10° 167° (SSE) 2,279 6.6 -11.4°
Sets 05:21:49 0° 165° (SSE) 3,197 7.5 -11.1°
